Location: Unspecified
(0.0000°N, 0.0000°E)
Time: 03:26:52
(UTC+00:00)

N. Korean satellite - Pass Details

Date: 27 September 2022
Orbit: 427 x 468 km, 97.3° (Epoch: 25 September)

Event Time Altitude Azimuth Distance (km) Brightness Sun altitude
Rises 04:19:30 0° 33° (NNE) 2,378 10.5 -22.9°
Reaches altitude 10° 04:21:48 10° 49° (NE) 1,519 9.7 -22.3°
Maximum altitude 04:24:22 22° 101° (E) 1,005 9.0 -21.7°
Drops below altitude 10° 04:26:57 10° 153° (SSE) 1,535 9.4 -21.0°
Sets 04:29:16 0° 169° (S) 2,412 10.3 -20.5°
